Regional Weather Roundup
Issued by NWS

Home | Current Version | Previous Version | Graphics & Text | Print | Product List | Glossary Off
Versions: 1 2 3 4 5 6 7 8 9 10 11 12 13 14 15 16 17 18 19 20 21 22 23 24 25 26 27 28 29 30 31 32 33 34 35 36 37 38 39 40 41 42 43 44 45 46 47 48 49 50

000
ASUS43 KTOP 241459
RWRKS

WEATHER ROUNDUP FOR KANSAS
NATIONAL WEATHER SERVICE GOODLAND KS
900 AM CST SAT FEB 24 2018

NOTE:  "FAIR" INDICATES FEW OR NO CLOUDS BELOW 12,000 FEET WITH NO
SIGNIFICANT WEATHER AND/OR OBSTRUCTIONS TO VISIBILITY.

KSZ001>006-013>018-027>032-041>047-241600-
NORTHWEST KANSAS

CITY           SKY/WX    TMP DP  RH WIND       PRES   REMARKS
GOODLAND       LGT SNOW  26  24  92 SW7       29.79F FOG
HAYS           CLOUDY    29  28  96 N6        29.86F FOG
HILL CITY      FOG       27  27 100 NE3       29.88F VSB 1/4
RUSSELL        CLOUDY    31  30  96 N5        29.85F FOG
$$

KSZ061>065-074>080-084>089-241600-
SOUTHWEST KANSAS

CITY           SKY/WX    TMP DP  RH WIND       PRES   REMARKS
DODGE CITY     CLOUDY    29  26  89 SW7       29.80F
GARDEN CITY    CLOUDY    28  27  96 W7        29.83F
GREAT BEND     CLOUDY    31  30  96 VRB3      29.83F
LIBERAL        CLOUDY    29  28  96 CALM      29.83F
$$

KSZ066>073-081>083-090>101-241600-
SOUTHEAST KANSAS

CITY           SKY/WX    TMP DP  RH WIND       PRES   REMARKS
CHANUTE        FOG       38  37  97 NE7       29.86F VSB 1/4
COFFEYVILLE    CLOUDY    39  39 100 N7        29.83F FOG
HUTCHINSON     CLOUDY    32  32 100 N6        29.83F FOG
MEDICINE LODGE   N/A     32  31  96 N8        29.84F
NEWTON           N/A    N/A N/A N/A MISG        N/A
PARSONS        FOG       38  38 100 VRB3      29.85F VSB 1/2
WICHITA INTL   CLOUDY    34  34 100 N10       29.83F WCI  26
WICHITA JABRA  CLOUDY    33  33 100 N7        29.84F
WICHITA MCCONL CLOUDY    34  34  99 N10       29.82F WCI  26
WINFIELD       CLOUDY    34  34 100 E5        29.84F FOG
$$

KSZ007>012-019>026-033>040-048>060-102>105-241600-
NORTHEAST KANSAS

CITY           SKY/WX    TMP DP  RH WIND       PRES   REMARKS
CONCORDIA      CLOUDY    28  27  96 NE7       29.87F FOG
EMPORIA        FOG       32  32 100 N6        29.85F VSB 1/2
LAWRENCE       CLOUDY    36  36 100 NE6       29.88F FOG
MANHATTAN      CLOUDY    34  32  92 NE9       29.86F FOG
OLATHE IND     CLOUDY    36  36 100 E8        29.88F FOG
OLATHE EXE     CLOUDY    35  35 100 E8        29.87F FOG
SALINA         CLOUDY    33  32  96 N10       29.86F FOG     WCI  25
TOPEKA BILLARD CLOUDY    35  35 100 N3        29.89F FOG
TOPEKA FORBES  CLOUDY    36  35  96 NE5       29.87F FOG
$$




USA.gov is the U.S. government's official web portal to all federal, state and local government web resources and services.